Regional Weather Roundup
Issued by NWS Lake Charles, LA

Home | Current Version | Previous Version | Text Only | Print | Product List | Glossary On
Versions: 1 2 3 4 5 6 7 8 9 10 11 12 13 14 15 16 17 18 19 20 21 22 23 24 25 26 27 28 29 30 31 32 33 34 35 36 37 38 39 40 41 42 43 44 45
000
ASUS44 KLCH 220010
RWRLCH
RWRLCH
REGIONAL WEATHER ROUNDUP
NATIONAL WEATHER SERVICE LAKE CHARLES LA
700 PM CDT TUE OCT 21 2014

Note: "fair" indicates few or no clouds below 12,000 feet with no
significant weather and/or obstructions to visibility.


ACROSS SOUTHEAST TEXAS

CITY           SKY/WX    TMP DP  RH WIND       PRES   REMARKS
BEAUMONT       CLEAR     75  60  59 NE7       29.98S
BEAUMONT CITY    N/A     72  61  68 CALM      29.99S
ORANGE         CLEAR     72  61  70 CALM      30.00S
JASPER         CLEAR     71  63  76 N3        30.03S
$$

ACROSS CENTRAL LOUISIANA

CITY           SKY/WX    TMP DP  RH WIND       PRES   REMARKS
LEESVILLE      CLEAR     70  64  82 NE5       30.00S
FULLERTON        N/A     72  63  73 CALM      29.99R
ALEXANDRIA INT CLEAR     70  63  78 N5        29.99R
ESLER FIELD    PTCLDY    68  65  90 CALM      30.01R
DERIDDER         N/A     71  62  74 N3        30.02S
OAKDALE        CLEAR     66  64  92 CALM      30.00R
OPELOUSAS        N/A     66  61  82 CALM      29.99S
$$

ACROSS SOUTHWEST AND SOUTH CENTRAL LOUISIANA

CITY           SKY/WX    TMP DP  RH WIND       PRES   REMARKS
SULPHUR        CLEAR     74  60  61 N3        30.00R
LAKE CHARLES   CLEAR     69  61  75 N3        29.99R
CHENNAULT INT  NOT AVBL
CAMERON PHI    CLEAR     72  59  64 NE7       30.01S
DEQUINCY         N/A     69  64  85 CALM      30.00R
JENNINGS         N/A     73  60  63 CALM      29.99S
LAFAYETTE      CLEAR     70  63  78 CALM      29.99R
NEW IBERIA     CLEAR     71  60  68 N3        30.00R
ABBEVILLE        N/A     70  60  69 NE3       29.99R
PATTERSON      CLEAR     66  63  88 CALM      30.00S
SALT POINT       N/A     72  62  71 CALM      29.97R
$$

SELECTED SITES ACROSS THE REGION

CITY           SKY/WX    TMP DP  RH WIND       PRES   REMARKS
HOUSTON BUSH   PTCLDY    75  59  57 NE7       29.99R
HOUSTON HOBBY  PTCLDY    76  56  49 E5        29.98R
GALVESTON      CLEAR     75  61  61 NE9       29.99R
COLLEGE STAT   CLEAR     76  58  53 E3        30.00R
CONROE         CLEAR     69  61  75 CALM      30.00S
HUNTSVILLE     CLEAR     74  59  59 CALM      30.01R
LUFKIN         CLEAR     74  64  71 CALM      30.01S
SHREVEPORT     CLEAR     75  61  61 N5        30.02R
MONROE         CLEAR     64  60  87 CALM      30.03R
NATCHEZ MS     CLEAR     66  61  82 CALM      30.02S
BATON ROUGE    CLEAR     67  60  78 NW5       29.99R
N.O. INTL ARPT PTCLDY    74  54  49 N3        29.98R
SLIDELL        CLEAR     68  60  75 CALM      29.98R
$$

MARINE REPORTS

STATION/POSITION TIME  TEMP    WIND        PRES    VSBY  WAVE
                       AIR SEA DIR/SP/G                  HT/PER
                 (UTC) (F)     (DEG/KT/KT) (MB)    (MI)  (FT/S)
BUOY 30 S HIGH I 0000   76 78   70/ 12/ 14 1014.7R         3/ 5
SEA RIM ST PARK  0000   74      40/  6/  6 1015.8R
PORT ARTHUR      0000      76   40/  1/  4 1015.4R
SABINE PASS N    0000   74 75   50/  5/  6 1015.3S
TEXAS POINT      0000   75 76   40/  6/  7 1015.4R
CALCASIEU PASS   0000   75 76   50/  7/  8   N/A
LK CHARLES BEACH 0000   77 77              1015.6R
MARSH ISLAND     NOT AVBL
FRESH WATER LOCK 0000   74 75   40/  3/  4 1015.1S
AMERADA PASS     0000   73 73   60/  3/  5 1014.8F
$$



USA.gov is the U.S. government's official web portal to all federal, state and local government web resources and services.